User: anonymous   Login
Location: Young's Pond
(41.2695°N, 72.7766°W)
Time: 05:14:49
(UTC-04:00)
Language:

Spot 4 - Orbit

View from above orbital plane
View from above orbital plane
View from above satellite
View from above satellite

Ground track
Ground track

The orbit data is extracted from the following two-line orbital elements,

1 25260U 98017A   15185.90365271  .00000023  00000-0  16685-4 0  9998
2 25260 098.4145 257.2434 0011892 306.3845 053.6252 14.53286509898242
Epoch (UTC): 04 July 2015 21:41:15
Eccentricity: 0.0011892
inclination: 98.4145°
perigee height: 706 km
apogee height: 723 km
right ascension of ascending node: 257.2434°
argument of perigee: 306.3845°
revolutions per day: 14.53286509
mean anomaly at epoch: 53.6252°
orbit number at epoch: 89824

The dashed part of the orbit path shows where the satellite is in the earth's shadow,  

DLR